Regional Weather Roundup
Issued by NWS

Home | Current Version | Previous Version | Graphics & Text | Print | Product List | Glossary On
Versions: 1 2 3 4 5 6 7 8 9 10 11 12 13 14 15 16 17 18 19 20 21 22 23 24 25 26 27 28 29 30 31 32 33 34 35 36 37 38 39 40 41 42 43 44 45 46 47 48 49 50
496
ASUS43 KOAX 191102
RWRNE

WEATHER ROUNDUP FOR NEBRASKA
NATIONAL WEATHER SERVICE OMAHA NE
500 AM CST FRI JAN 19 2018

NOTES: SATELLITE DATA IS BEING USED TO AUGMENT CLOUD COVER ABOVE
       12000 FEET.
       "FAIR" INDICATES FEW OR NO CLOUDS BELOW 12,000 FEET WITH NO
       SIGNIFICANT WEATHER AND/OR OBSTRUCTIONS TO VISIBILITY.


NEZ001>004-019>022-054>056-191200-
NEBRASKA PANHANDLE

CITY           SKY/WX    TMP DP  RH WIND       PRES   REMARKS
SCOTTSBLUFF    CLOUDY    32  27  81 CALM      29.75F
ALLIANCE       CLOUDY    34  29  82 W6        29.73F WCI  29
CHADRON        CLOUDY    44  29  55 CALM      29.64F
GORDON         FAIR      40  30  66 SW8       29.65F
KIMBALL        CLOUDY    42  21  43 W13       29.78F
SIDNEY         CLOUDY    34  20  56 NW5       29.77F WCI  30
$$

NEZ057>060-069>072-079>082-191200-
SOUTHWEST NEBRASKA

CITY           SKY/WX    TMP DP  RH WIND       PRES   REMARKS
NORTH PLATTE   PTCLDY    23  20  88 NW3       29.75F
IMPERIAL       MOCLDY    30  22  72 CALM      29.77F
LEXINGTON      PTCLDY    27  23  84 W5        29.76F WCI  22
MCCOOK         PTCLDY    32  22  66 W15       29.78F WCI  22
OGALLALA       CLOUDY    28  24  85 W5        29.75F WCI  23
$$

NEZ005>010-023>029-035>040-094-191200-
NORTH CENTRAL NEBRASKA

CITY           SKY/WX    TMP DP  RH WIND       PRES   REMARKS
VALENTINE      CLOUDY    41  30  65 W7        29.64F
AINSWORTH      CLOUDY    43  32  65 W14       29.64F
BROKEN BOW     PTCLDY    35  25  66 W8        29.71F WCI  29
O`NEILL        PTCLDY    39  32  75 SW8       29.65F WCI  34
ORD            CLEAR     27  24  89 CALM      29.70F
THEDFORD       CLOUDY    42  29  58 SW7       29.70F
$$

NEZ041-046>049-061>064-073>077-083>087-191200-
SOUTH CENTRAL NEBRASKA

CITY           SKY/WX    TMP DP  RH WIND       PRES   REMARKS
GRAND ISLAND   CLOUDY    34  25  69 SW9       29.74F WCI  27
AURORA         CLOUDY    34  23  63 SW13      29.76F WCI  25
HASTINGS       CLOUDY    34  19  54 S7        29.77F WCI  28
HEBRON         PTCLDY    35  22  60 SW9       29.81F WCI  27
HOLDREGE       CLOUDY    37  23  57 SW3       29.76F
KEARNEY        CLOUDY    33  23  66 SW7       29.76F WCI  27
YORK           CLOUDY    32  27  80 S13       29.76F WCI  22
$$

NEZ011>018-030>034-042>045-191200-
NORTHEAST NEBRASKA

CITY           SKY/WX    TMP DP  RH WIND       PRES   REMARKS
NORFOLK        CLOUDY    33  27  78 SW5       29.69F WCI  29
ALBION         PTCLDY    34  27  76 CALM      29.71F
BLAIR          CLOUDY    32  24  72 S12       29.76F WCI  23
COLUMBUS       CLOUDY    24  22  91 CALM      29.75F
FREMONT        CLOUDY    32  24  71 E3        29.76F
TEKAMAH        CLOUDY    24  20  84 SE10      29.75F WCI  14
WAYNE          PTCLDY    33  31  92 S9        29.69F WCI  26
$$

NEZ050>053-065>068-078-088>093-191200-
SOUTHEAST NEBRASKA

CITY           SKY/WX    TMP DP  RH WIND       PRES   REMARKS
LINCOLN        CLOUDY    35  22  58 S7        29.81F WCI  29
OMAHA EPPLEY   CLOUDY    27  22  81 SE12      29.80F WCI  17
FALLS CITY     CLOUDY    34  23  64 S13       29.87F WCI  25
NEBRASKA CITY  CLOUDY    36  27  69 SW17G23   29.82S WCI  25
PLATTSMOUTH    CLOUDY    33  25  72 S9        29.81S WCI  26
$$

NEZ044-045-051>053-067-191200-
OMAHA AREA

CITY           SKY/WX    TMP DP  RH WIND       PRES   REMARKS
OMAHA EPPLEY   CLOUDY    27  22  81 SE12      29.80F WCI  17
BLAIR          CLOUDY    32  24  72 S12       29.76F WCI  23
FREMONT        CLOUDY    32  24  71 E3        29.76F
MILLARD        CLOUDY    29  24  81 SE3       29.80F
OFFUTT AFB     CLOUDY    23  20  86 SE3       29.80F
PLATTSMOUTH    CLOUDY    33  25  72 S9        29.81S WCI  26
WAHOO          FAIR      31  23  73 S7        29.77F WCI  24
$$




USA.gov is the U.S. government's official web portal to all federal, state and local government web resources and services.